Weather History for Vero Beach, FL

Change the Weather History Date:

Wednesday, November 7, 2012

  Actual Average Record
Temperature  
Mean Temperature 60 °F 72 °F  
Max Temperature 69 °F 80 °F 86 °F (1990)
Min Temperature 50 °F 63 °F 42 °F (1970)
Degree Days  
Heating Degree Days 5 0  
Month to date heating degree days 6 0  
Since 1 July heating degree days 23 3  
Cooling Degree Days 0 7  
Month to date cooling degree days 14 54  
Year to date cooling degree days 3359 3182  
Growing Degree Days 10 (Base 50)    
Moisture  
Dew Point 50 °F    
Average Humidity 72    
Maximum Humidity 100    
Minimum Humidity 44    
Precipitation  
Precipitation 0.00 in 0.12 in 1.40 in (1965)
Month to date precipitation 0.00 0.83  
Year to date precipitation 45.54 47.23  
Sea Level Pressure  
Sea Level Pressure 29.91 in    
Wind  
Wind Speed 10 mph (WNW)    
Max Wind Speed 25 mph    
Max Gust Speed 31 mph    
Visibility 10 miles    
Events      
T = Trace of Precipitation, MM = Missing Value Source: NWS Daily Summary

Daily Weather History Graph

Daily Weather History Graph

Search for Another Location

Airport:

Trip Planner

Search our weather history database for the weather conditions in past years. The results will help you decide how hot, cold, wet, or windy it might be!

Date:

Astronomy

Nov. 07, 2012 Rise Set
Actual Time 6:37 AM EST 5:33 PM EST
Civil Twilight 6:12 AM EST 5:57 PM EST
Nautical Twilight 5:44 AM EST 6:25 PM EST
Astronomical Twilight 5:17 AM EST 6:53 PM EST
Moon 12:04 AM EST (11/7) 1:09 PM EST (11/7)
Length of Visible Light 11h 45m
Length of Day
10h 56m
Last Quarter, 43% of the Moon is Illuminated
Nov 7
Last Quarter
Nov 13
New
Nov 20
First Quarter
Nov 28
Full
Dec 6
Last Quarter

Hourly Weather History & Observations

Time (EST) Temp. Dew Point Humidity Pressure Visibility Wind Dir Wind Speed Gust Speed Precip Events Conditions
12:53 AM 59.0 °F 59.0 °F 100% 29.85 in 10.0 mi West 6.9 mph - N/A   Clear
1:53 AM 57.9 °F 57.9 °F 100% 29.84 in 10.0 mi West 6.9 mph - N/A   Clear
2:53 AM 57.9 °F 57.0 °F 97% 29.85 in 10.0 mi WNW 8.1 mph - N/A   Clear
3:53 AM 55.9 °F 55.9 °F 100% 29.85 in 10.0 mi West 6.9 mph - N/A   Clear
4:53 AM 55.0 °F 54.0 °F 96% 29.86 in 10.0 mi West 6.9 mph - N/A   Clear
5:53 AM 54.0 °F 53.1 °F 97% 29.88 in 10.0 mi WNW 6.9 mph - N/A   Clear
6:53 AM 55.0 °F 54.0 °F 96% 29.91 in 10.0 mi West 10.4 mph - N/A   Mostly Cloudy
7:53 AM 57.0 °F 55.0 °F 93% 29.93 in 10.0 mi WNW 9.2 mph - N/A   Clear
8:53 AM 60.1 °F 53.1 °F 78% 29.94 in 10.0 mi WNW 9.2 mph - N/A   Clear
9:53 AM 64.0 °F 50.0 °F 60% 29.94 in 10.0 mi WNW 15.0 mph 27.6 mph N/A   Clear
10:53 AM 66.0 °F 48.9 °F 54% 29.93 in 10.0 mi WNW 17.3 mph 29.9 mph N/A   Scattered Clouds
11:53 AM 66.9 °F 48.0 °F 51% 29.92 in 10.0 mi NW 17.3 mph 27.6 mph N/A   Partly Cloudy
12:53 PM 69.1 °F 46.9 °F 45% 29.89 in 10.0 mi West 18.4 mph 25.3 mph N/A   Clear
1:53 PM 68.0 °F 46.9 °F 47% 29.88 in 10.0 mi WNW 16.1 mph 27.6 mph N/A   Clear
2:53 PM 68.0 °F 46.0 °F 45% 29.87 in 10.0 mi West 17.3 mph 26.5 mph N/A   Partly Cloudy
3:53 PM 66.9 °F 45.0 °F 45% 29.88 in 10.0 mi WNW 13.8 mph - N/A   Clear
4:53 PM 64.0 °F 45.0 °F 50% 29.88 in 10.0 mi WNW 11.5 mph 18.4 mph N/A   Partly Cloudy
6:53 PM 55.0 °F 46.9 °F 74% 29.93 in 10.0 mi NW 4.6 mph - N/A   Clear
7:53 PM 53.1 °F 46.0 °F 77% 29.95 in 10.0 mi WNW 5.8 mph - N/A   Partly Cloudy
8:53 PM 52.0 °F 46.0 °F 80% 29.98 in 10.0 mi West 5.8 mph - N/A   Clear
9:53 PM 53.1 °F 46.0 °F 77% 30.00 in 10.0 mi WNW 6.9 mph - N/A   Clear
10:53 PM 52.0 °F 45.0 °F 77% 30.00 in 10.0 mi WNW 8.1 mph - N/A   Clear
11:53 PM 51.1 °F 45.0 °F 80% 29.99 in 10.0 mi West 6.9 mph - N/A   Clear